[[{"header":{"parameterUnit":"m.s-1","parameterCategory":1,"la1":30.2991,"la2":30.254,"lo1":-89.0895,"lo2":-89.0444,"dy":0.0017,"dx":0.0017,"nx":28,"ny":28,"refTime":"2025-06-20T21:00:00:Z","depth":0,"parameterNumber":2,"parameterNumberName":"U-component_of_WINDS"},"data":[0,0,0,0,0,0,0,0,0,0,0,0,0,0,0,0,0,0,0,0,0,0,0,0,0,0,0,0,0,0,0,0,0,0,0,0,0,0,0,0,0,0,0,0,0,0,0,0,0,0,0,0,0,0,0,0,0,0,-0.2178,-0.2176,0,-0.1994,-0.1992,-0.199,-0.1892,-0.1891,-0.1891,-0.1891,-0.1704,-0.1699,-0.1695,0,0,0,0,0,0,0,0,0,0,0,0,0,-0.2448,-0.2443,-0.2178,-0.2176,-0.2174,-0.1994,-0.1992,-0.1989,-0.1892,-0.1891,-0.1891,-0.1891,-0.1706,-0.17,-0.1694,0,0,0,0,0,0,0,0,0,0,0,0,0,-0.2304,-0.2442,-0.2179,-0.2103,-0.2095,-0.1995,-0.1992,-0.1989,-0.1892,-0.1891,-0.1891,-0.1891,-0.1708,-0.1701,-0.1693,-0.1655,0,0,-0.1671,-0.1668,0,0,0,0,0,0,0,0,-0.2312,-0.2294,-0.2117,-0.2108,-0.2098,-0.1965,-0.2018,-0.1877,-0.1892,-0.1969,-0.1891,-0.1891,-0.1791,-0.1777,-0.1743,-0.1646,-0.1638,-0.1671,-0.1666,-0.1663,-0.1661,0,0,0,0,0,0,0,-0.2322,-0.2302,-0.2105,-0.2114,-0.2103,-0.2079,-0.2059,-0.1991,-0.1884,-0.1962,-0.1955,-0.1934,-0.1786,-0.1751,-0.1738,-0.1635,-0.1671,-0.1665,-0.166,-0.1657,-0.1498,-0.1498,0,0,0,0,0,0,-0.2344,-0.2311,-0.2111,-0.21,-0.2207,-0.2075,-0.2052,-0.2008,-0.1885,-0.1865,-0.1934,-0.193,-0.1763,-0.1747,-0.1731,-0.1678,-0.1663,-0.1657,-0.1653,-0.1498,-0.1498,-0.1499,0,0,0,0,0,0,-0.235,-0.2327,-0.2119,-0.2203,-0.2175,-0.207,-0.2023,-0.2005,-0.1969,-0.1864,-0.1844,-0.1917,-0.1762,-0.1742,-0.1675,-0.1671,-0.1653,-0.1647,-0.1498,-0.1498,-0.1498,-0.1573,0,0,0,0,0,0,-0.2358,-0.233,-0.2314,-0.2203,-0.2171,-0.2065,-0.2023,-0.2002,-0.1957,-0.1949,-0.1842,-0.1824,-0.176,-0.1686,-0.1668,-0.166,-0.1641,-0.1498,-0.1498,-0.1498,-0.157,-0.1575,-0.158,0,0,0,0,0,-0.2368,-0.2342,-0.2313,-0.229,-0.2148,-0.2065,-0.2046,-0.1972,-0.1957,-0.194,-0.1872,-0.1828,-0.1674,-0.168,-0.1659,-0.1649,-0.1498,-0.1498,-0.1498,-0.1568,-0.1574,-0.158,0,0,0,0,0,0,-0.2455,-0.2326,-0.2293,-0.223,-0.2159,-0.2048,-0.2025,-0.1981,-0.1913,-0.1909,-0.1821,-0.1798,-0.174,-0.1688,-0.1696,-0.1606,-0.1582,-0.1578,-0.1642,-0.1647,-0.1652,-0.1665,-0.1635,0,0,0,0,0,-0.2467,-0.2409,-0.23,-0.2255,-0.2221,-0.213,-0.209,-0.204,-0.1963,-0.1933,-0.186,-0.1788,-0.1723,-0.1682,-0.1617,-0.1562,-0.1538,-0.1545,-0.155,-0.1555,-0.1552,-0.152,-0.1522,-0.1499,-0.1499,-0.1499,0,0,-0.2491,-0.2413,-0.2382,-0.2271,-0.221,-0.2153,-0.2105,-0.2047,-0.2004,-0.1924,-0.1856,-0.1801,-0.1714,-0.1654,-0.1624,-0.1609,-0.1553,-0.1555,-0.1559,-0.1554,-0.1521,-0.1523,-0.1525,-0.1499,-0.1499,-0.1499,0,0,-0.2505,-0.2441,-0.2396,-0.2336,-0.2244,-0.2183,-0.2173,-0.2069,-0.2029,-0.196,-0.1899,-0.1847,-0.1737,-0.1678,-0.1634,-0.1627,-0.1584,-0.1609,-0.1634,-0.1604,-0.1606,-0.1607,-0.1605,-0.1605,-0.1607,-0.1607,-0.1607,0,-0.2546,-0.2457,-0.2379,-0.2324,-0.2277,-0.2202,-0.2157,-0.2103,-0.1995,-0.1965,-0.195,-0.1811,-0.1747,-0.1672,-0.1671,-0.1638,-0.1624,-0.162,-0.1612,-0.1612,-0.1612,-0.1609,-0.1609,-0.161,-0.161,-0.161,-0.1609,0,-0.2513,-0.2453,-0.2428,-0.2325,-0.2276,-0.2226,-0.2141,-0.2101,-0.2055,-0.1996,-0.1928,-0.1849,-0.1767,-0.1745,-0.17,-0.1664,-0.1658,-0.1628,-0.1602,-0.1619,-0.1615,-0.1613,-0.1616,-0.1614,-0.1613,-0.1612,0,0,-0.2576,-0.2431,-0.2423,-0.2376,-0.227,-0.2222,-0.217,-0.2089,-0.2056,-0.1985,-0.1939,-0.1849,-0.1821,-0.1771,-0.1718,-0.1692,-0.1693,-0.1666,-0.1662,-0.1674,-0.1649,-0.1672,-0.1672,-0.1664,-0.1663,-0.1663,-0.1656,0,-0.2575,-0.2477,-0.2405,-0.2335,-0.2278,-0.2207,-0.2162,-0.2092,-0.2036,-0.1981,-0.1919,-0.1857,-0.1825,-0.1794,-0.1765,-0.1699,-0.1687,-0.1698,-0.1621,-0.1619,-0.1645,-0.1669,-0.1693,-0.169,-0.1654,-0.1654,-0.1654,0,-0.2561,-0.2491,-0.2415,-0.2316,-0.2289,-0.225,-0.217,-0.2118,-0.2038,-0.2,-0.1944,-0.1891,-0.1833,-0.1813,-0.1733,-0.1743,-0.1707,-0.167,-0.1668,-0.1658,-0.1637,-0.166,-0.1688,-0.1688,-0.165,-0.165,-0.1651,0,-0.2615,-0.2502,-0.2442,-0.2404,-0.2286,-0.226,-0.221,-0.213,-0.2086,-0.2017,-0.1988,-0.1914,-0.1873,-0.1817,-0.1745,-0.1737,-0.1673,-0.1647,-0.164,-0.1642,-0.1629,-0.1631,-0.1652,-0.1607,-0.1607,-0.1607,-0.1607,0,-0.2621,-0.2577,-0.2465,-0.2428,-0.2377,-0.2296,-0.2249,-0.2193,-0.2122,-0.2074,-0.2008,-0.1964,-0.1872,-0.1817,-0.1761,-0.1704,-0.1686,-0.1653,-0.1639,-0.1659,-0.1663,-0.1634,-0.1633,-0.1607,-0.1607,-0.1607,-0.1607,0,-0.2672,-0.2595,-0.2525,-0.2419,-0.2392,-0.236,-0.2269,-0.2232,-0.2173,-0.2112,-0.2094,-0.2001,-0.1933,-0.1856,-0.1763,-0.1725,-0.1672,-0.1651,-0.1699,-0.1691,-0.1688,-0.169,-0.1691,-0.1688,-0.1646,-0.1646,-0.1647,0,-0.2681,-0.2646,-0.2537,-0.25,-0.2451,-0.2392,-0.2347,-0.2266,-0.2223,-0.213,-0.2103,-0.2031,-0.1968,-0.1864,-0.1789,-0.1717,-0.1694,-0.1699,-0.1683,-0.1704,-0.1694,-0.1697,-0.1693,-0.1704,-0.1705,-0.1706,-0.1706,0,-0.2706,-0.267,-0.2607,-0.2531,-0.248,-0.2416,-0.235,-0.2324,-0.223,-0.2185,-0.2114,-0.2066,-0.1971,-0.19,-0.182,-0.1769,-0.1722,-0.1712,-0.1707,-0.1727,-0.1757,-0.1741,-0.1712,-0.1712,-0.1712,-0.1711,-0.1711,-0.1711,-0.2736,-0.2702,-0.262,-0.2552,-0.2494,-0.2435,-0.2394,-0.233,-0.227,-0.2186,-0.2142,-0.2073,-0.1995,-0.1882,-0.1833,-0.1778,-0.1763,-0.1755,-0.1753,-0.1752,-0.1758,-0.1766,-0.1763,-0.1763,-0.1763,-0.1763,-0.1762,0,-0.2757,-0.2701,-0.264,-0.255,-0.2498,-0.2458,-0.2383,-0.2342,-0.2282,-0.2213,-0.2153,-0.2073,-0.2004,-0.1924,-0.185,-0.1822,-0.1799,-0.1805,-0.1806,-0.1796,-0.1776,-0.1788,-0.1825,-0.1825,-0.1825,-0.1825,-0.1825,-0.1825,-0.2762,-0.2702,-0.2656,-0.2567,-0.2511,-0.2443,-0.2404,-0.2348,-0.2293,-0.2206,-0.2149,-0.2097,-0.2023,-0.1944,-0.1879,-0.1857,-0.1834,-0.1846,-0.1819,-0.1802,-0.1797,-0.1792,-0.1803,-0.1842,-0.1842,-0.1842,-0.1842,-0.1842]},{"header":{"parameterUnit":"m.s-1","parameterCategory":1,"la1":30.2991,"la2":30.254,"lo1":-89.0895,"lo2":-89.0444,"dy":0.0017,"dx":0.0017,"nx":28,"ny":28,"refTime":"2025-06-20T21:00:00:Z","depth":0,"parameterNumber":3,"parameterNumberName":"V-component_of_WINDS"},"data":[0,0,0,0,0,0,0,0,0,0,0,0,0,0,0,0,0,0,0,0,0,0,0,0,0,0,0,0,0,0,0,0,0,0,0,0,0,0,0,0,0,0,0,0,0,0,0,0,0,0,0,0,0,0,0,0,0,0,2.6169,2.6169,0,2.6151,2.615,2.615,2.6109,2.6108,2.6107,2.6106,2.6087,2.6087,2.6087,0,0,0,0,0,0,0,0,0,0,0,0,0,2.6167,2.6168,2.6169,2.6169,2.6169,2.6151,2.615,2.615,2.6109,2.6108,2.6107,2.6106,2.6087,2.6087,2.6087,0,0,0,0,0,0,0,0,0,0,0,0,0,2.616,2.6168,2.6169,2.6146,2.6143,2.6151,2.615,2.615,2.6109,2.6108,2.6106,2.6105,2.6087,2.6087,2.6087,2.6116,0,0,2.6089,2.6089,0,0,0,0,0,0,0,0,2.6161,2.616,2.6149,2.6147,2.6145,2.613,2.6143,2.6138,2.6109,2.6122,2.6106,2.6105,2.6102,2.6101,2.6101,2.6115,2.6114,2.6089,2.6089,2.6089,2.6089,0,0,0,0,0,0,0,2.6161,2.6161,2.6162,2.6149,2.6146,2.6136,2.6133,2.6142,2.612,2.6121,2.6118,2.6116,2.6101,2.61,2.61,2.6114,2.6089,2.6089,2.6089,2.609,2.6148,2.6149,0,0,0,0,0,0,2.6165,2.6162,2.6162,2.6161,2.615,2.6137,2.6134,2.6136,2.6119,2.6116,2.6117,2.6114,2.61,2.61,2.6099,2.613,2.6089,2.609,2.609,2.6147,2.6148,2.615,0,0,0,0,0,0,2.6165,2.6166,2.6163,2.6161,2.6159,2.6138,2.6141,2.6137,2.6136,2.6117,2.6112,2.6121,2.6099,2.6099,2.6112,2.6129,2.609,2.609,2.6145,2.6147,2.6149,2.6192,0,0,0,0,0,0,2.6166,2.6166,2.6177,2.6161,2.616,2.6176,2.6142,2.6137,2.6137,2.6133,2.6119,2.6115,2.6098,2.6111,2.6112,2.6129,2.6091,2.6144,2.6146,2.6149,2.6189,2.6196,2.6201,0,0,0,0,0,2.6166,2.619,2.6178,2.6178,2.6173,2.6177,2.6176,2.6156,2.6139,2.6149,2.6136,2.6116,2.6127,2.6113,2.6113,2.613,2.6143,2.6146,2.6148,2.6187,2.6194,2.6201,0,0,0,0,0,0,2.6209,2.6188,2.6174,2.6194,2.6188,2.617,2.6183,2.6165,2.6164,2.616,2.6135,2.6132,2.6148,2.6141,2.6125,2.6156,2.6131,2.6134,2.616,2.6167,2.6173,2.6174,2.6091,0,0,0,0,0,2.6221,2.6226,2.6207,2.6227,2.6224,2.6204,2.6205,2.619,2.6183,2.618,2.6168,2.6162,2.6163,2.6165,2.6166,2.6188,2.6184,2.62,2.6206,2.6211,2.6213,2.6223,2.623,2.6159,2.6159,2.6159,0,0,2.6245,2.6234,2.6239,2.6235,2.6229,2.6234,2.6202,2.621,2.6214,2.6181,2.6192,2.6183,2.6174,2.6192,2.6199,2.6186,2.6232,2.6214,2.6218,2.6219,2.6227,2.6234,2.624,2.6161,2.6161,2.6161,0,0,2.6292,2.6285,2.63,2.6294,2.6284,2.627,2.6274,2.6259,2.6252,2.6263,2.6238,2.6242,2.6246,2.624,2.6237,2.6281,2.6262,2.6282,2.6312,2.6322,2.6328,2.6332,2.6347,2.6353,2.6285,2.6285,2.6285,0,2.6324,2.6332,2.631,2.6319,2.6317,2.6288,2.6302,2.6297,2.6288,2.6288,2.6273,2.6277,2.6268,2.6283,2.6294,2.6293,2.6296,2.6283,2.6329,2.6333,2.6337,2.6351,2.6357,2.6288,2.6287,2.6287,2.6287,0,2.6371,2.6376,2.6389,2.6381,2.6381,2.6393,2.6372,2.6375,2.6359,2.6347,2.6358,2.6347,2.6344,2.6346,2.6332,2.6359,2.6351,2.6333,2.6308,2.6347,2.6359,2.6364,2.6291,2.629,2.629,2.6289,0,0,2.6445,2.6423,2.6428,2.6424,2.641,2.6414,2.6424,2.6421,2.6423,2.6418,2.6425,2.6429,2.6411,2.6409,2.6393,2.6402,2.6436,2.6383,2.6382,2.6392,2.6464,2.6477,2.6483,2.6423,2.6424,2.6425,2.6464,0,2.6488,2.6504,2.6484,2.6504,2.6508,2.648,2.6488,2.6481,2.6469,2.6471,2.6458,2.646,2.6438,2.6436,2.6444,2.643,2.645,2.6427,2.6429,2.6429,2.6431,2.649,2.6504,2.6541,2.6469,2.647,2.647,0,2.6541,2.6538,2.6558,2.6542,2.6543,2.6551,2.6546,2.6549,2.6539,2.653,2.6526,2.6507,2.6515,2.6491,2.6501,2.6486,2.6485,2.6478,2.6479,2.6478,2.6451,2.6489,2.6553,2.6558,2.6478,2.6477,2.6477,0,2.6592,2.6592,2.6604,2.6601,2.6583,2.6589,2.6582,2.6571,2.657,2.6566,2.6565,2.6562,2.656,2.6558,2.6538,2.6522,2.655,2.6524,2.6541,2.6542,2.6548,2.6548,2.6612,2.6549,2.6549,2.6549,2.6549,0,2.6642,2.6655,2.6626,2.6634,2.6647,2.6624,2.6638,2.6628,2.6618,2.6622,2.6598,2.6602,2.6576,2.6578,2.6562,2.6572,2.6572,2.6564,2.6559,2.6566,2.6567,2.6564,2.6561,2.6551,2.655,2.655,2.655,0,2.67,2.6682,2.6693,2.6675,2.667,2.6681,2.6665,2.6671,2.6658,2.6663,2.6663,2.6642,2.6642,2.6623,2.6619,2.6609,2.6624,2.6616,2.6628,2.6625,2.6643,2.6641,2.6707,2.6714,2.6648,2.6649,2.6649,0,2.6733,2.6743,2.6725,2.6726,2.672,2.6723,2.6721,2.6698,2.6698,2.6687,2.6694,2.6692,2.6689,2.6691,2.6675,2.6672,2.6662,2.6685,2.6662,2.6667,2.6661,2.6661,2.6661,2.669,2.6691,2.6692,2.6692,0,2.6793,2.6783,2.6783,2.6778,2.6778,2.6773,2.6767,2.677,2.6744,2.6745,2.6745,2.6743,2.6739,2.6737,2.673,2.6722,2.6703,2.67,2.6704,2.671,2.6716,2.6712,2.664,2.6699,2.6698,2.6698,2.6697,2.6697,2.6839,2.6846,2.6834,2.6834,2.6827,2.6822,2.6826,2.6813,2.6812,2.6807,2.6793,2.6795,2.6784,2.6773,2.6767,2.6767,2.6756,2.6761,2.6763,2.6764,2.6767,2.6716,2.6766,2.6766,2.6766,2.6766,2.6765,0,2.6897,2.6888,2.6888,2.688,2.688,2.6862,2.6854,2.6854,2.6856,2.6848,2.6845,2.6844,2.6842,2.6826,2.6821,2.6825,2.6816,2.6825,2.6824,2.6822,2.6778,2.6775,2.6832,2.6832,2.6832,2.6832,2.6832,2.6832,2.6927,2.6937,2.6925,2.6931,2.6922,2.6923,2.692,2.6915,2.6907,2.6908,2.6906,2.6895,2.6883,2.6877,2.6874,2.6869,2.6868,2.688,2.6872,2.6832,2.6825,2.6819,2.6816,2.688,2.688,2.6915,2.6916,2.6916]}]]